Waarnemingen

Advertentie
Mijn weer
L9F, Nederland (6207): temperatuur & dauwpunt: 14.07.2018 18:00:00 - 20.07.2018 18:00:00 (CEST)L9F, Nederland (6207): windsnelheid & windstoten: 14.07.2018 18:00:00 - 20.07.2018 18:00:00 (CEST)L9F, Nederland (6207): windrichting: 14.07.2018 18:00:00 - 20.07.2018 18:00:00 (CEST)L9F, Nederland (6207): luchtdruk: 14.07.2018 18:00:00 - 20.07.2018 18:00:00 (CEST)L9F, Nederland (6207): zicht: 14.07.2018 18:00:00 - 20.07.2018 18:00:00 (CEST)
Datum & Tijd tt [°C] td [°C] ff [km/u] ff [kn] fx [km/u] fx [kn] dd ppp [hPa] vv [km]
20.07.2018 18:00:00 18,6 14,2 18 10 18 10 ONO 1014,8 10
20.07.2018 17:00:00 18,7 14,2 16 9 18 10 ONO 1015,4 10
20.07.2018 16:00:00 19,0 14,7 16 9 18 10 ONO 1015,8 10
20.07.2018 15:00:00 19,2 14,5 15 8 18 10 O 1016,3 10
20.07.2018 14:00:00 19,3 14,2 16 9 18 10 ONO 1016,5 10
20.07.2018 13:00:00 18,1 14,1 21 11 18 10 O 1016,6 10
20.07.2018 12:00:00 19,5 15,1 16 9 18 10 O 1016,7 10
20.07.2018 11:00:00 19,3 14,8 15 8 18 10 ONO 1016,7 10
20.07.2018 10:00:00 20,1 15,3 13 7 14 8 O 1017,0 10
20.07.2018 09:00:00 19,8 15,0 13 7 14 8 O 1017,0 10
20.07.2018 08:00:00 18,2 13,6 11 6 14 8 O 1017,0 10
20.07.2018 07:00:00 20,8 15,0 13 7 14 8 ONO 1017,3 10
20.07.2018 06:00:00 19,5 13,7 13 7 18 10 O 1017,5 10
20.07.2018 05:00:00 17,6 13,2 16 9 18 10 O 1017,9 10
20.07.2018 04:00:00 17,8 12,9 18 10 18 10 O 1018,1 10
20.07.2018 03:00:00 19,6 13,2 16 9 18 10 O 1018,5 10
20.07.2018 02:00:00 20,8 14,2 16 9 18 10 O 1018,8 10
20.07.2018 01:00:00 21,8 14,1 16 9 18 10 O 1018,9 10
20.07.2018 00:00:00 21,9 14,7 15 8 18 10 ONO 1019,2 10
19.07.2018 23:00:00 17,9 13,2 18 10 18 10 ONO 1019,5 10
19.07.2018 22:00:00 17,7 13,4 18 10 18 10 NO 1019,6 10
19.07.2018 21:00:00 18,0 12,6 18 10 22 12 NO 1019,5 10
19.07.2018 20:00:00 17,9 12,8 22 12 22 12 NO 1019,5 10
19.07.2018 19:00:00 17,9 13,5 21 11 22 12 NO 1019,8 10
19.07.2018 18:00:00 17,9 13,5 24 13 25 14 NO 1019,7 10
19.07.2018 17:00:00 17,8 13,6 24 13 25 14 NO 1020,1 10
19.07.2018 16:00:00 17,8 13,9 22 12 22 12 NO 1020,3 10
19.07.2018 15:00:00 17,7 15,0 24 13 22 12 NO 1020,3 10
19.07.2018 14:00:00 17,7 15,2 22 12 22 12 NO 1020,6 10
19.07.2018 13:00:00 17,7 15,2 22 12 22 12 ONO 1020,8 10
19.07.2018 12:00:00 17,7 15,2 22 12 22 12 NO 1020,6 10
19.07.2018 11:00:00 17,7 15,2 22 12 25 14 NO 1020,6 10
19.07.2018 10:00:00 17,7 15,3 22 12 22 12 NO 1020,6 10
19.07.2018 09:00:00 18,0 14,9 18 10 18 10 NO 1020,5 10
19.07.2018 08:00:00 18,0 13,5 16 9 18 10 NO 1020,4 10
19.07.2018 07:00:00 17,7 14,5 16 9 18 10 ONO 1020,4 10
19.07.2018 06:00:00 17,7 14,7 16 9 18 10 NO 1020,2 10
19.07.2018 05:00:00 17,8 14,8 16 9 14 8 NO 1020,3 10
19.07.2018 04:00:00 17,8 14,6 15 8 14 8 NO 1020,3 10
19.07.2018 03:00:00 17,9 15,1 15 8 14 8 NO 1020,4 10
19.07.2018 02:00:00 18,2 15,0 11 6 11 6 NNO 1020,4 10
19.07.2018 01:00:00 18,5 15,3 11 6 11 6 ONO 1020,4 10
19.07.2018 00:00:00 20,2 15,0 9 5 11 6 O 1020,4 10
18.07.2018 23:00:00 20,2 16,0 11 6 11 6 O 1020,2 10
18.07.2018 22:00:00 18,8 15,0 9 5 11 6 O 1019,9 10
18.07.2018 21:00:00 19,1 15,1 9 5 11 6 OZO 1019,9 10
18.07.2018 20:00:00 19,6 15,5 9 5 11 6 OZO 1019,7 10
18.07.2018 19:00:00 19,6 15,1 8 4 7 4 ZO 1019,7 10
18.07.2018 18:00:00 19,7 15,1 5 3 11 6 ZO 1019,6 10
18.07.2018 17:00:00 19,2 15,2 5 3 7 4 ZZO 1019,7 10
18.07.2018 16:00:00 18,7 16,5 8 4 11 6 ZZO 1019,7 10
18.07.2018 15:00:00 18,8 16,1 9 5 11 6 ZZO 1019,8 10
18.07.2018 14:00:00 18,5 14,5 9 5 11 6 ZZO 1019,7 10
18.07.2018 13:00:00 18,3 14,0 13 7 11 6 Z 1019,5 10
18.07.2018 12:00:00 18,2 12,6 9 5 11 6 ZZO 1019,4 10
18.07.2018 11:00:00 18,2 13,3 9 5 11 6 ZO 1019,3 10
18.07.2018 10:00:00 17,8 12,8 8 4 7 4 ZZO 1019,2 10
18.07.2018 09:00:00 17,5 13,1 4 2 7 4 Z 1018,9 10
18.07.2018 08:00:00 17,7 13,4 2 1 7 4 ZZO 1018,5 10
18.07.2018 07:00:00 17,6 12,9 8 4 18 10 N 1018,2 10
18.07.2018 06:00:00 17,3 12,7 15 8 22 12 NW 1018,0 10
18.07.2018 05:00:00 17,4 12,4 16 9 18 10 WNW 1017,9 10
18.07.2018 04:00:00 17,2 12,5 16 9 14 8 W 1017,7 10
18.07.2018 03:00:00 16,9 13,0 21 11 22 12 W 1017,7 10
18.07.2018 02:00:00 16,6 13,8 22 12 25 14 W 1017,6 10
18.07.2018 01:00:00 16,6 14,1 24 13 25 14 W 1017,5 10
18.07.2018 00:00:00 16,6 14,2 26 14 29 16 W 1017,5 10
17.07.2018 23:00:00 16,7 14,4 26 14 25 14 W 1017,2 10
17.07.2018 22:00:00 16,5 14,2 24 13 25 14 W 1016,6 10
17.07.2018 21:00:00 16,5 14,0 28 15 32 18 W 1016,3 10
17.07.2018 20:00:00 16,7 14,3 31 17 32 18 WZW 1015,5 10
17.07.2018 19:00:00 16,9 14,8 28 15 36 19 WZW 1015,4 10
17.07.2018 18:00:00 16,5 14,3 37 20 36 19 WZW 1015,4 10
17.07.2018 17:00:00 16,7 14,9 37 20 40 21 WZW 1015,1 10
17.07.2018 16:00:00 17,0 15,2 37 20 40 21 WZW 1014,9 10
17.07.2018 15:00:00 17,1 15,4 31 17 36 19 WZW 1014,5 8
17.07.2018 14:00:00 17,0 15,7 35 19 40 21 WZW 1014,0 9
17.07.2018 13:00:00 17,6 16,2 39 21 40 21 ZW 1013,9 8
17.07.2018 12:00:00 18,0 16,5 42 23 40 21 ZZW 1013,6 10
17.07.2018 11:00:00 18,7 16,5 35 19 32 18 ZZW 1013,3 10
17.07.2018 10:00:00 19,5 16,6 29 16 32 18 Z 1013,0 10
17.07.2018 09:00:00 19,6 17,0 34 18 32 18 Z 1012,8 10
17.07.2018 08:00:00 19,8 16,4 26 14 29 16 Z 1012,8 10
17.07.2018 07:00:00 19,8 16,1 26 14 29 16 Z 1012,7 10
17.07.2018 06:00:00 19,4 16,4 29 16 32 18 Z 1012,5 10
17.07.2018 05:00:00 19,5 16,1 29 16 32 18 ZZO 1012,7 10
17.07.2018 04:00:00 19,4 16,1 31 17 36 19 - 1013,1 10
17.07.2018 03:00:00 19,2 16,3 34 18 32 18 ZO 1013,4 10
17.07.2018 02:00:00 19,1 16,5 35 19 32 18 ZO 1013,6 10
17.07.2018 01:00:00 19,0 16,3 34 18 29 16 OZO 1014,0 10
17.07.2018 00:00:00 19,1 15,5 31 17 32 18 OZO 1014,0 10
16.07.2018 23:00:00 19,1 15,7 31 17 29 16 OZO 1014,1 10
16.07.2018 22:00:00 19,4 15,6 31 17 40 21 OZO 1013,9 10
16.07.2018 21:00:00 19,8 15,4 42 23 40 21 O 1013,6 10
16.07.2018 20:00:00 19,9 15,5 41 22 40 21 O 1013,7 10
16.07.2018 19:00:00 19,8 15,9 41 22 36 19 O 1013,7 10
16.07.2018 18:00:00 19,9 16,2 35 19 32 18 O 1014,0 10
16.07.2018 17:00:00 20,6 16,4 31 17 29 16 O 1014,3 10
16.07.2018 16:00:00 20,3 16,5 24 13 25 14 O 1014,6 10
16.07.2018 15:00:00 20,3 17,2 18 10 18 10 O 1015,1 10
16.07.2018 14:00:00 19,4 16,4 15 8 14 8 OZO 1015,4 10
16.07.2018 13:00:00 18,9 16,4 15 8 14 8 ZO 1015,6 10
16.07.2018 12:00:00 18,7 15,9 16 9 18 10 ZZO 1015,6 10
16.07.2018 11:00:00 18,8 15,5 18 10 18 10 ZZO 1015,7 10
16.07.2018 10:00:00 18,5 15,3 21 11 18 10 ZO 1015,8 10
16.07.2018 09:00:00 18,2 15,0 22 12 22 12 ZO 1015,8 10
16.07.2018 08:00:00 17,9 14,6 24 13 25 14 ZO 1015,7 10
16.07.2018 07:00:00 18,0 14,2 26 14 25 14 ZO 1015,7 10
16.07.2018 06:00:00 18,0 13,6 28 15 29 16 ZO 1015,8 10
16.07.2018 05:00:00 18,0 14,5 29 16 29 16 ZO 1015,8 10
16.07.2018 04:00:00 18,3 14,2 29 16 29 16 OZO 1016,0 10
16.07.2018 03:00:00 18,3 15,2 28 15 29 16 OZO 1016,4 10
16.07.2018 02:00:00 18,4 15,5 28 15 25 14 OZO 1016,6 10
16.07.2018 01:00:00 18,5 14,9 28 15 29 16 OZO 1016,8 10
16.07.2018 00:00:00 18,6 14,5 29 16 32 18 OZO 1017,0 10
15.07.2018 23:00:00 18,6 14,2 34 18 36 19 O 1017,0 10
15.07.2018 22:00:00 18,5 14,7 35 19 36 19 O 1017,0 10
15.07.2018 21:00:00 18,8 15,8 31 17 32 18 O 1016,7 10
15.07.2018 20:00:00 19,8 15,4 29 16 29 16 O 1016,9 10
15.07.2018 19:00:00 21,0 16,2 26 14 25 14 O 1017,2 10
15.07.2018 18:00:00 21,3 16,6 16 9 18 10 ONO 1017,5 10
15.07.2018 17:00:00 19,4 15,6 9 5 18 10 O 1017,9 10
15.07.2018 16:00:00 22,3 16,7 9 5 11 6 O 1018,1 10
15.07.2018 15:00:00 18,5 14,4 5 3 7 4 ZO 1018,7 10
15.07.2018 14:00:00 18,2 14,5 9 5 11 6 ZO 1019,2 10
15.07.2018 13:00:00 17,7 14,6 9 5 11 6 Z 1019,5 10
15.07.2018 12:00:00 17,4 14,7 15 8 18 10 Z 1019,7 10
15.07.2018 11:00:00 17,1 14,1 18 10 18 10 Z 1019,4 10
15.07.2018 10:00:00 16,7 14,1 21 11 22 12 Z 1019,4 10
15.07.2018 09:00:00 16,5 13,8 18 10 18 10 Z 1019,5 10
15.07.2018 08:00:00 16,3 14,0 21 11 22 12 Z 1019,6 10
15.07.2018 07:00:00 16,5 12,9 22 12 22 12 Z 1019,3 10
15.07.2018 06:00:00 16,5 12,8 22 12 22 12 Z 1019,4 10
15.07.2018 05:00:00 16,9 12,9 22 12 22 12 ZZO 1019,5 10
15.07.2018 04:00:00 17,1 12,9 21 11 18 10 ZZO 1019,7 10
15.07.2018 03:00:00 17,2 13,7 18 10 18 10 ZZO 1019,9 10
15.07.2018 02:00:00 17,2 13,5 16 9 18 10 ZZO 1020,0 10
15.07.2018 01:00:00 17,0 13,6 15 8 14 8 ZZO 1020,4 10
15.07.2018 00:00:00 16,9 13,6 13 7 14 8 ZZO 1020,5 10
14.07.2018 23:00:00 16,7 13,0 11 6 11 6 ZO 1020,5 10
14.07.2018 22:00:00 17,1 13,2 9 5 11 6 ZO 1020,6 10
14.07.2018 21:00:00 17,6 13,0 4 2 4 2 ZO 1020,7 10
14.07.2018 20:00:00 17,4 12,8 2 1 7 4 - 1020,8 10
14.07.2018 19:00:00 17,5 12,9 5 3 14 8 N 1021,2 10
14.07.2018 18:00:00 17,1 12,9 9 5 18 10 - 1021,5 10

tt = temperatuur
td = dauwpunt
ff = windsnelheid
fx = windstoten
dd = windrichting
ppp = luchtdruk
vv = zicht

Weerstations in de omgeving